Weather History for West Palm Beach, FL

Change the Weather History Date:

Monday, November 22, 2010

  Actual Average Record
Temperature  
Mean Temperature 78 °F 72 °F  
Max Temperature 83 °F 79 °F 89 °F (1920)
Min Temperature 72 °F 64 °F 40 °F (2006)
Degree Days  
Heating Degree Days 0 1  
Month to date heating degree days 9 1  
Since 1 July heating degree days 9 2  
Cooling Degree Days 13 7  
Month to date cooling degree days 172 190  
Year to date cooling degree days 3940 3811  
Growing Degree Days 28 (Base 50)    
Moisture  
Dew Point 63 °F    
Average Humidity 61    
Maximum Humidity 74    
Minimum Humidity 47    
Precipitation  
Precipitation T in 0.14 in 7.41 in (1984)
Month to date precipitation 1.14 3.70  
Year to date precipitation 51.85 57.90  
Snow  
Snow 0.00 in - - ()
Month to date snowfall 0.0  
Since 1 July snowfall 0.0  
Since 1 September snowfall 0.0  
Snow Depth 0.00 in    
Sea Level Pressure  
Sea Level Pressure 30.20 in    
Wind  
Wind Speed 12 mph (East)    
Max Wind Speed 20 mph    
Max Gust Speed 24 mph    
Visibility 10 miles    
Events      
T = Trace of Precipitation, MM = Missing Value Source: NWS Daily Summary

Daily Weather History Graph

Daily Weather History Graph

Search for Another Location

Airport:

Trip Planner

Search our weather history database for the weather conditions in past years. The results will help you decide how hot, cold, wet, or windy it might be!

Date:

Astronomy

Nov. 22, 2010 Rise Set
Actual Time 6:44 AM EST 5:27 PM EST
Civil Twilight 6:20 AM EST 5:52 PM EST
Nautical Twilight 5:51 AM EST 6:20 PM EST
Astronomical Twilight 5:24 AM EST 6:48 PM EST
Moon 6:17 PM EST (11/22) 7:36 AM EST (11/22)
Length of Visible Light 11h 32m
Length of Day
10h 42m
Full, 99% of the Moon is Illuminated
Nov 22
Full
Nov 28
Last Quarter
Dec 5
New
Dec 13
First Quarter
Dec 21
Full

Hourly Weather History & Observations

Time (EST) Temp. Heat Index Dew Point Humidity Pressure Visibility Wind Dir Wind Speed Gust Speed Precip Events Conditions
12:53 AM 75.0 °F - 66.0 °F 73% 30.22 in 10.0 mi East 12.7 mph - 0.00 in   Overcast
1:53 AM 75.0 °F - 64.9 °F 71% 30.20 in 10.0 mi East 13.8 mph - N/A   Mostly Cloudy
2:53 AM 73.9 °F - 64.0 °F 71% 30.19 in 10.0 mi East 9.2 mph - N/A   Scattered Clouds
3:53 AM 73.9 °F - 63.0 °F 68% 30.19 in 10.0 mi East 10.4 mph - N/A   Scattered Clouds
4:53 AM 73.9 °F - 64.9 °F 73% 30.20 in 10.0 mi East 9.2 mph - N/A   Mostly Cloudy
5:53 AM 73.9 °F - 64.0 °F 71% 30.20 in 10.0 mi East 9.2 mph - N/A   Scattered Clouds
6:53 AM 73.9 °F - 64.9 °F 73% 30.20 in 10.0 mi East 9.2 mph - N/A   Mostly Cloudy
7:53 AM 75.9 °F - 66.0 °F 71% 30.22 in 10.0 mi East 13.8 mph - N/A   Mostly Cloudy
8:53 AM 78.1 °F - 64.9 °F 64% 30.23 in 10.0 mi East 13.8 mph - N/A   Mostly Cloudy
9:53 AM 80.1 °F 81.7 °F 64.0 °F 58% 30.25 in 10.0 mi East 17.3 mph - N/A   Mostly Cloudy
10:53 AM 81.0 °F 82.2 °F 63.0 °F 54% 30.24 in 10.0 mi East 16.1 mph - N/A   Scattered Clouds
11:53 AM 82.0 °F 82.4 °F 60.1 °F 47% 30.22 in 10.0 mi East 16.1 mph 21.9 mph N/A   Scattered Clouds
12:53 PM 82.0 °F 83.0 °F 62.1 °F 51% 30.19 in 10.0 mi East 17.3 mph - N/A   Scattered Clouds
1:53 PM 82.0 °F 82.7 °F 61.0 °F 49% 30.18 in 10.0 mi East 16.1 mph 24.2 mph N/A   Scattered Clouds
2:53 PM 82.0 °F 82.7 °F 61.0 °F 49% 30.17 in 10.0 mi East 15.0 mph - N/A   Scattered Clouds
3:53 PM 80.1 °F 81.1 °F 61.0 °F 52% 30.16 in 10.0 mi ENE 11.5 mph - N/A   Scattered Clouds
4:53 PM 79.0 °F - 62.1 °F 56% 30.17 in 10.0 mi East 10.4 mph - N/A   Scattered Clouds
5:53 PM 77.0 °F - 62.1 °F 60% 30.17 in 10.0 mi East 10.4 mph - N/A   Scattered Clouds
6:53 PM 77.0 °F - 62.1 °F 60% 30.18 in 10.0 mi East 11.5 mph - N/A   Scattered Clouds
7:53 PM 75.9 °F - 63.0 °F 64% 30.19 in 10.0 mi East 10.4 mph - N/A   Scattered Clouds
8:53 PM 75.9 °F - 62.1 °F 62% 30.20 in 10.0 mi East 12.7 mph - N/A   Partly Cloudy
9:53 PM 75.0 °F - 62.1 °F 64% 30.19 in 10.0 mi East 8.1 mph - N/A   Partly Cloudy
10:53 PM 75.9 °F - 60.1 °F 58% 30.18 in 10.0 mi East 10.4 mph - N/A   Partly Cloudy
11:53 PM 75.0 °F - 61.0 °F 62% 30.17 in 10.0 mi East 11.5 mph - N/A   Partly Cloudy